Tracking 19903 objects as of 17-Oct-2019
HD Live streaming from Space Station
objects crossing your sky now

SL-16 R/B

Track SL-16 R/B now!
10-day predictions
SL-16 R/B is classified as:


NORAD ID: 23705
Int'l Code: 1995-058B
Perigee: 841.6 km
Apogee: 856.4 km
Inclination: 71.0 °
Period: 101.8 minutes
Semi major axis: 7220 km
RCS: 9.8957 m2 (large)
Launch date: October 31, 1995
Source: Commonwealth of Independent States (former USSR) (CIS)
Launch site: TYURATAM MISSILE AND SPACE COMPLEX (TTMTR)

Note: This is a ROCKET BODY
aabbcc
Your satellite tracking list
Your tracking list is empty




NASA's NSSDC Master Catalog

Two Line Element Set (TLE):
1 23705U 95058B   19288.88339820 -.00000167 +00000-0 -61739-4 0  9999
2 23705 071.0233 044.1890 0010238 079.5129 280.7147 14.15125913237236
Source of the keplerian elements: AFSPC